User: anonymous   Login
Location: Unspecified
(0.0000°N, 0.0000°E)
Time: 16:11:17
(UTC+01:00)
Language:

Cosmos 1437 - Orbit

View from above orbital plane
View from above orbital plane
View from above satellite
View from above satellite

Ground track
Ground track

The orbit data is extracted from the following two-line orbital elements,

1 13770U 83003A   14352.55943859  .00019476  00000-0  57523-3 0  7298
2 13770 081.1620 176.1527 0008983 202.2671 210.5562 15.34797242745815
Epoch (UTC): 18 December 2014 13:25:35
Eccentricity: 0.0008983
inclination: 81.1620°
perigee height: 455 km
apogee height: 467 km
right ascension of ascending node: 176.1527°
argument of perigee: 202.2671°
revolutions per day: 15.34797242
mean anomaly at epoch: 210.5562°
orbit number at epoch: 74581

The dashed part of the orbit path shows where the satellite is in the earth's shadow,  

DLR